Location: Limerick
(52.6650°N, 8.6230°W)
Time: 20:02:18
(UTC+01:00)

ISS - Pass Details

Date: 29 May 2017
Orbit: 401 x 408 km, 51.6° (Epoch: 26 June)

Event Time Altitude Azimuth Distance (km) Brightness Sun altitude
Rises 22:50:05 0° 256° (WSW) 2,338 0.4 -7.7°
Reaches altitude 10° 22:52:11 10° 253° (WSW) 1,477 -0.7 -7.9°
Maximum altitude 22:55:28 68° 171° (S) 446 -3.8 -8.2°
Drops below altitude 10° 22:58:49 10° 88° (E) 1,496 -1.3 -8.5°
Sets 23:00:51 0° 86° (E) 2,336 -0.3 -8.7°
